Date_Time,Julian_Date,Latitude,Longitude,Instrument_Depth,U,V,Speed,Direction
(yyyy-mm-dd hh:mn:ss UTC),(JD),(+ deg. North),(+ deg. East),(m),(cm/s),(cm/s),(cm/s),(deg True)
1993-01-16 00:30:00 UTC,2449003.520833,27.8153,-93.5322,0190,-2.32,5.54,6.0062,337.2774
1993-01-16 01:00:00 UTC,2449003.541667,27.8153,-93.5322,0190,-1.58,5.79,6.0017,344.7365
1993-01-16 01:30:00 UTC,2449003.562500,27.8153,-93.5322,0190,-0.55,5.67,5.6966,354.4595
1993-01-16 02:00:00 UTC,2449003.583333,27.8153,-93.5322,0190,-0.40,7.19,7.2011,356.8158
1993-01-16 02:30:00 UTC,2449003.604167,27.8153,-93.5322,0190,-0.28,7.19,7.1955,357.7699
1993-01-16 03:00:00 UTC,2449003.625000,27.8153,-93.5322,0190,1.59,6.41,6.6043,13.9310
1993-01-16 03:30:00 UTC,2449003.645833,27.8153,-93.5322,0190,2.14,5.28,5.6972,22.0629
1993-01-16 04:00:00 UTC,2449003.666667,27.8153,-93.5322,0190,1.71,3.28,3.6990,27.5349
1993-01-16 04:30:00 UTC,2449003.687500,27.8153,-93.5322,0190,1.42,2.76,3.1039,27.2255
1993-01-16 05:00:00 UTC,2449003.708333,27.8153,-93.5322,0190,1.26,1.92,2.2965,33.2749
1993-01-16 05:30:00 UTC,2449003.729167,27.8153,-93.5322,0190,1.16,1.63,2.0006,35.4378
1993-01-16 06:00:00 UTC,2449003.750000,27.8153,-93.5322,0190,1.56,0.67,1.6978,66.7571
1993-01-16 06:30:00 UTC,2449003.770833,27.8153,-93.5322,0190,1.40,-0.08,1.4023,93.2705
1993-01-16 07:00:00 UTC,2449003.791667,27.8153,-93.5322,0190,1.13,-0.82,1.3962,125.9670
1993-01-16 07:30:00 UTC,2449003.812500,27.8153,-93.5322,0190,0.24,-1.38,1.4007,170.1342
1993-01-16 08:00:00 UTC,2449003.833333,27.8153,-93.5322,0190,0.24,-1.07,1.0966,167.3578
1993-01-16 08:30:00 UTC,2449003.854167,27.8153,-93.5322,0190,0.15,-1.09,1.1003,172.1645
1993-01-16 09:00:00 UTC,2449003.875000,27.8153,-93.5322,0190,0.04,-1.10,1.1007,177.9174
1993-01-16 09:30:00 UTC,2449003.895833,27.8153,-93.5322,0190,0.06,-1.10,1.1016,176.8779
1993-01-16 10:00:00 UTC,2449003.916667,27.8153,-93.5322,0190,-0.05,-1.10,1.1011,182.6026
1993-01-16 10:30:00 UTC,2449003.937500,27.8153,-93.5322,0190,-0.23,-1.08,1.1042,192.0223
1993-01-16 11:00:00 UTC,2449003.958333,27.8153,-93.5322,0190,0.79,-0.76,1.0962,133.8912
1993-01-16 11:30:00 UTC,2449003.979167,27.8153,-93.5322,0190,1.13,2.34,2.5986,25.7762
1993-01-16 12:00:00 UTC,2449004.000000,27.8153,-93.5322,0190,2.30,4.67,5.2057,26.2205
1993-01-16 12:30:00 UTC,2449004.020833,27.8153,-93.5322,0190,3.41,5.30,6.3022,32.7571
1993-01-16 13:00:00 UTC,2449004.041667,27.8153,-93.5322,0190,4.37,5.72,7.1983,37.3793
1993-01-16 13:30:00 UTC,2449004.062500,27.8153,-93.5322,0190,4.82,7.48,8.8985,32.7971
1993-01-16 14:00:00 UTC,2449004.083333,27.8153,-93.5322,0190,5.86,7.48,9.5021,38.0759
1993-01-16 14:30:00 UTC,2449004.104167,27.8153,-93.5322,0190,5.22,6.58,8.3991,38.4254
1993-01-16 15:00:00 UTC,2449004.125000,27.8153,-93.5322,0190,5.60,5.86,8.1055,43.7003
1993-01-16 15:30:00 UTC,2449004.145833,27.8153,-93.5322,0190,6.90,6.08,9.1965,48.6148
1993-01-16 16:00:00 UTC,2449004.166667,27.8153,-93.5322,0190,8.97,5.83,10.6981,56.9784
1993-01-16 16:30:00 UTC,2449004.187500,27.8153,-93.5322,0190,10.24,4.78,11.3007,64.9770
1993-01-16 17:00:00 UTC,2449004.208333,27.8153,-93.5322,0190,12.40,2.73,12.6970,77.5838
1993-01-16 17:30:00 UTC,2449004.229167,27.8153,-93.5322,0190,13.27,0.93,13.3025,85.9911
1993-01-16 18:00:00 UTC,2449004.250000,27.8153,-93.5322,0190,12.67,-0.82,12.6965,93.7030
1993-01-16 18:30:00 UTC,2449004.270833,27.8153,-93.5322,0190,11.86,-2.39,12.0984,101.3935
1993-01-16 19:00:00 UTC,2449004.291667,27.8153,-93.5322,0190,11.15,-3.20,11.6001,106.0132
1993-01-16 19:30:00 UTC,2449004.312500,27.8153,-93.5322,0190,9.50,-4.23,10.3992,114.0016
1993-01-16 20:00:00 UTC,2449004.333333,27.8153,-93.5322,0190,9.04,-5.14,10.3991,119.6219
1993-01-16 20:30:00 UTC,2449004.354167,27.8153,-93.5322,0190,9.54,-6.06,11.3020,122.4245
1993-01-16 21:00:00 UTC,2449004.375000,27.8153,-93.5322,0190,9.13,-4.98,10.3999,118.6105
1993-01-16 21:30:00 UTC,2449004.395833,27.8153,-93.5322,0190,9.91,-3.16,10.4016,107.6859
1993-01-16 22:00:00 UTC,2449004.416667,27.8153,-93.5322,0190,9.62,-3.95,10.3994,112.3232
1993-01-16 22:30:00 UTC,2449004.437500,27.8153,-93.5322,0190,9.16,-3.50,9.8059,110.9117
1993-01-16 23:00:00 UTC,2449004.458333,27.8153,-93.5322,0190,7.50,-2.15,7.8021,105.9958
1993-01-16 23:30:00 UTC,2449004.479167,27.8153,-93.5322,0190,6.57,-0.63,6.6001,95.4774
1993-01-17 00:00:00 UTC,2449004.500000,27.8153,-93.5322,0190,5.93,0.89,5.9964,81.4645
1993-01-17 00:30:00 UTC,2449004.520833,27.8153,-93.5322,0190,5.32,2.05,5.7013,68.9264
1993-01-17 01:00:00 UTC,2449004.541667,27.8153,-93.5322,0190,5.99,3.99,7.1972,56.3320
1993-01-17 01:30:00 UTC,2449004.562500,27.8153,-93.5322,0190,7.15,5.29,8.8942,53.5037
1993-01-17 02:00:00 UTC,2449004.583333,27.8153,-93.5322,0190,5.88,6.00,8.4009,44.4213
1993-01-17 02:30:00 UTC,2449004.604167,27.8153,-93.5322,0190,5.46,6.39,8.4050,40.5126
1993-01-17 03:00:00 UTC,2449004.625000,27.8153,-93.5322,0190,4.81,6.89,8.4029,34.9194
1993-01-17 03:30:00 UTC,2449004.645833,27.8153,-93.5322,0190,1.79,6.66,6.8964,15.0438
1993-01-17 04:00:00 UTC,2449004.666667,27.8153,-93.5322,0190,0.40,8.39,8.3995,2.7296
1993-01-17 04:30:00 UTC,2449004.687500,27.8153,-93.5322,0190,-0.39,8.89,8.8986,357.4881
1993-01-17 05:00:00 UTC,2449004.708333,27.8153,-93.5322,0190,2.59,7.04,7.5013,20.1985
1993-01-17 05:30:00 UTC,2449004.729167,27.8153,-93.5322,0190,5.53,7.72,9.4963,35.6148
1993-01-17 06:00:00 UTC,2449004.750000,27.8153,-93.5322,0190,9.70,4.52,10.7014,65.0154
1993-01-17 06:30:00 UTC,2449004.770833,27.8153,-93.5322,0190,11.77,2.80,12.0985,76.6185
1993-01-17 07:00:00 UTC,2449004.791667,27.8153,-93.5322,0190,13.66,3.89,14.2031,74.1045
1993-01-17 07:30:00 UTC,2449004.812500,27.8153,-93.5322,0190,13.80,1.65,13.8983,83.1818
1993-01-17 08:00:00 UTC,2449004.833333,27.8153,-93.5322,0190,14.44,-1.29,14.4975,95.1050
1993-01-17 08:30:00 UTC,2449004.854167,27.8153,-93.5322,0190,13.46,-1.96,13.6020,98.2850
1993-01-17 09:00:00 UTC,2449004.875000,27.8153,-93.5322,0190,13.22,-3.18,13.5971,103.5252
1993-01-17 09:30:00 UTC,2449004.895833,27.8153,-93.5322,0190,12.02,-4.09,12.6968,108.7917
1993-01-17 10:00:00 UTC,2449004.916667,27.8153,-93.5322,0190,10.35,-4.54,11.3020,113.6845
1993-01-17 10:30:00 UTC,2449004.937500,27.8153,-93.5322,0190,9.46,-5.01,10.7048,117.9056
1993-01-17 11:00:00 UTC,2449004.958333,27.8153,-93.5322,0190,9.07,-5.09,10.4006,119.3007
1993-01-17 11:30:00 UTC,2449004.979167,27.8153,-93.5322,0190,8.62,-5.26,10.0981,121.3919
1993-01-17 12:00:00 UTC,2449005.000000,27.8153,-93.5322,0190,6.81,-4.39,8.1024,122.8074
1993-01-17 12:30:00 UTC,2449005.020833,27.8153,-93.5322,0190,5.96,-2.83,6.5978,115.3999
1993-01-17 13:00:00 UTC,2449005.041667,27.8153,-93.5322,0190,5.26,-2.19,5.6977,112.6044
1993-01-17 13:30:00 UTC,2449005.062500,27.8153,-93.5322,0190,3.80,-1.24,3.9972,108.0723
1993-01-17 14:00:00 UTC,2449005.083333,27.8153,-93.5322,0190,3.21,1.13,3.4031,70.6067
1993-01-17 14:30:00 UTC,2449005.104167,27.8153,-93.5322,0190,3.73,2.69,4.5988,54.2016
1993-01-17 15:00:00 UTC,2449005.125000,27.8153,-93.5322,0190,4.07,4.81,6.3009,40.2364
1993-01-17 15:30:00 UTC,2449005.145833,27.8153,-93.5322,0190,5.25,4.93,7.2019,46.8004
1993-01-17 16:00:00 UTC,2449005.166667,27.8153,-93.5322,0190,5.91,5.97,8.4005,44.7106
1993-01-17 16:30:00 UTC,2449005.187500,27.8153,-93.5322,0190,5.70,6.84,8.9037,39.8056
1993-01-17 17:00:00 UTC,2449005.208333,27.8153,-93.5322,0190,5.49,7.00,8.8961,38.1066
1993-01-17 17:30:00 UTC,2449005.229167,27.8153,-93.5322,0190,7.57,5.74,9.5001,52.8285
1993-01-17 18:00:00 UTC,2449005.250000,27.8153,-93.5322,0190,8.51,4.22,9.4989,63.6238
1993-01-17 18:30:00 UTC,2449005.270833,27.8153,-93.5322,0190,9.81,4.28,10.7030,66.4289
1993-01-17 19:00:00 UTC,2449005.291667,27.8153,-93.5322,0190,10.31,3.83,10.9984,69.6208
1993-01-17 19:30:00 UTC,2449005.312500,27.8153,-93.5322,0190,11.08,2.21,11.2983,78.7199
1993-01-17 20:00:00 UTC,2449005.333333,27.8153,-93.5322,0190,11.82,1.41,11.9038,83.1974
1993-01-17 20:30:00 UTC,2449005.354167,27.8153,-93.5322,0190,11.59,0.59,11.6050,87.0858
1993-01-17 21:00:00 UTC,2449005.375000,27.8153,-93.5322,0190,11.89,-0.48,11.8997,92.3118
1993-01-17 21:30:00 UTC,2449005.395833,27.8153,-93.5322,0190,11.58,-0.69,11.6005,93.4100
1993-01-17 22:00:00 UTC,2449005.416667,27.8153,-93.5322,0190,11.59,-0.55,11.6030,92.7169
1993-01-17 22:30:00 UTC,2449005.437500,27.8153,-93.5322,0190,12.10,-0.34,12.1048,91.6095
1993-01-17 23:00:00 UTC,2449005.458333,27.8153,-93.5322,0190,11.90,-0.12,11.9006,90.5778
1993-01-17 23:30:00 UTC,2449005.479167,27.8153,-93.5322,0190,11.90,-0.12,11.9006,90.5778
1993-01-18 00:00:00 UTC,2449005.500000,27.8153,-93.5322,0190,11.60,-0.12,11.6006,90.5927
1993-01-18 00:30:00 UTC,2449005.520833,27.8153,-93.5322,0190,11.00,0.02,11.0000,89.8958
1993-01-18 01:00:00 UTC,2449005.541667,27.8153,-93.5322,0190,10.91,1.44,11.0046,82.4810
1993-01-18 01:30:00 UTC,2449005.562500,27.8153,-93.5322,0190,10.94,2.83,11.3001,75.4964
1993-01-18 02:00:00 UTC,2449005.583333,27.8153,-93.5322,0190,9.83,3.39,10.3981,70.9726
1993-01-18 02:30:00 UTC,2449005.604167,27.8153,-93.5322,0190,9.29,4.67,10.3977,63.3117
1993-01-18 03:00:00 UTC,2449005.625000,27.8153,-93.5322,0190,8.53,4.83,9.8025,60.4799
1993-01-18 03:30:00 UTC,2449005.645833,27.8153,-93.5322,0190,7.46,5.38,9.1976,54.2016
1993-01-18 04:00:00 UTC,2449005.666667,27.8153,-93.5322,0190,7.72,5.01,9.2032,57.0179
1993-01-18 04:30:00 UTC,2449005.687500,27.8153,-93.5322,0190,7.49,4.43,8.7020,59.3976
1993-01-18 05:00:00 UTC,2449005.708333,27.8153,-93.5322,0190,6.55,3.66,7.5032,60.8045
1993-01-18 05:30:00 UTC,2449005.729167,27.8153,-93.5322,0190,5.57,2.94,6.2983,62.1737
1993-01-18 06:00:00 UTC,2449005.750000,27.8153,-93.5322,0190,6.24,2.15,6.6000,70.9885
1993-01-18 06:30:00 UTC,2449005.770833,27.8153,-93.5322,0190,6.90,-0.19,6.9026,91.5773
1993-01-18 07:00:00 UTC,2449005.791667,27.8153,-93.5322,0190,7.01,-1.64,7.1993,103.1676
1993-01-18 07:30:00 UTC,2449005.812500,27.8153,-93.5322,0190,7.20,-3.70,8.0951,117.1981
1993-01-18 08:00:00 UTC,2449005.833333,27.8153,-93.5322,0190,6.70,-4.55,8.0989,124.1806
1993-01-18 08:30:00 UTC,2449005.854167,27.8153,-93.5322,0190,6.59,-5.68,8.7000,130.7584
1993-01-18 09:00:00 UTC,2449005.875000,27.8153,-93.5322,0190,6.58,-6.43,9.2001,134.3394
1993-01-18 09:30:00 UTC,2449005.895833,27.8153,-93.5322,0190,6.37,-6.22,8.9031,134.3174
1993-01-18 10:00:00 UTC,2449005.916667,27.8153,-93.5322,0190,6.26,-6.04,8.6988,133.9753
1993-01-18 10:30:00 UTC,2449005.937500,27.8153,-93.5322,0190,5.82,-6.05,8.3949,136.1100
1993-01-18 11:00:00 UTC,2449005.958333,27.8153,-93.5322,0190,6.38,-4.99,8.0997,128.0301
1993-01-18 11:30:00 UTC,2449005.979167,27.8153,-93.5322,0190,6.95,-5.24,8.7040,127.0147
1993-01-18 12:00:00 UTC,2449006.000000,27.8153,-93.5322,0190,6.45,-4.38,7.7966,124.1792
1993-01-18 12:30:00 UTC,2449006.020833,27.8153,-93.5322,0190,5.96,-2.83,6.5978,115.3999
1993-01-18 13:00:00 UTC,2449006.041667,27.8153,-93.5322,0190,6.37,-2.65,6.8992,112.5879
1993-01-18 13:30:00 UTC,2449006.062500,27.8153,-93.5322,0190,7.12,-1.08,7.2014,98.6252
1993-01-18 14:00:00 UTC,2449006.083333,27.8153,-93.5322,0190,7.44,0.98,7.5043,82.4962
1993-01-18 14:30:00 UTC,2449006.104167,27.8153,-93.5322,0190,7.66,2.64,8.1022,70.9836
1993-01-18 15:00:00 UTC,2449006.125000,27.8153,-93.5322,0190,8.14,3.61,8.9046,66.0832
1993-01-18 15:30:00 UTC,2449006.145833,27.8153,-93.5322,0190,9.05,5.12,10.3979,60.5012
1993-01-18 16:00:00 UTC,2449006.166667,27.8153,-93.5322,0190,9.74,6.84,11.9018,54.9212
1993-01-18 16:30:00 UTC,2449006.187500,27.8153,-93.5322,0190,9.94,6.91,12.1059,55.1941
1993-01-18 17:00:00 UTC,2449006.208333,27.8153,-93.5322,0190,9.80,5.63,11.3021,60.1231
1993-01-18 17:30:00 UTC,2449006.229167,27.8153,-93.5322,0190,10.42,3.53,11.0017,71.2851
1993-01-18 18:00:00 UTC,2449006.250000,27.8153,-93.5322,0190,10.50,2.04,10.6963,79.0052
1993-01-18 18:30:00 UTC,2449006.270833,27.8153,-93.5322,0190,9.93,1.86,10.1027,79.3908
1993-01-18 19:00:00 UTC,2449006.291667,27.8153,-93.5322,0190,9.55,2.22,9.8046,76.9134
1993-01-18 19:30:00 UTC,2449006.312500,27.8153,-93.5322,0190,8.93,2.19,9.1946,76.2207
1993-01-18 20:00:00 UTC,2449006.333333,27.8153,-93.5322,0190,8.78,1.48,8.9039,80.4319
1993-01-18 20:30:00 UTC,2449006.354167,27.8153,-93.5322,0190,8.39,0.48,8.4037,86.7256
1993-01-18 21:00:00 UTC,2449006.375000,27.8153,-93.5322,0190,7.80,-0.08,7.8004,90.5876
1993-01-18 21:30:00 UTC,2449006.395833,27.8153,-93.5322,0190,8.09,-0.42,8.1009,92.9719
1993-01-18 22:00:00 UTC,2449006.416667,27.8153,-93.5322,0190,7.80,-0.18,7.8021,91.3220
1993-01-18 22:30:00 UTC,2449006.437500,27.8153,-93.5322,0190,5.82,-1.47,6.0028,104.1751
1993-01-18 23:00:00 UTC,2449006.458333,27.8153,-93.5322,0190,5.13,-0.88,5.2049,99.7338
1993-01-18 23:30:00 UTC,2449006.479167,27.8153,-93.5322,0190,3.33,0.67,3.3967,78.6239
1993-01-19 00:00:00 UTC,2449006.500000,27.8153,-93.5322,0190,2.96,1.67,3.3986,60.5688
1993-01-19 00:30:00 UTC,2449006.520833,27.8153,-93.5322,0190,2.39,3.21,4.0020,36.6695
1993-01-19 01:00:00 UTC,2449006.541667,27.8153,-93.5322,0190,1.74,2.56,3.0954,34.2035
1993-01-19 01:30:00 UTC,2449006.562500,27.8153,-93.5322,0190,1.00,2.62,2.8044,20.8908
1993-01-19 02:00:00 UTC,2449006.583333,27.8153,-93.5322,0190,2.10,3.75,4.2980,29.2488
1993-01-19 02:30:00 UTC,2449006.604167,27.8153,-93.5322,0190,2.11,4.42,4.8978,25.5187
1993-01-19 03:00:00 UTC,2449006.625000,27.8153,-93.5322,0190,1.10,5.08,5.1977,12.2179
1993-01-19 03:30:00 UTC,2449006.645833,27.8153,-93.5322,0190,0.79,6.55,6.5975,6.8773
1993-01-19 04:00:00 UTC,2449006.666667,27.8153,-93.5322,0190,1.27,7.70,7.8040,9.3658
1993-01-19 04:30:00 UTC,2449006.687500,27.8153,-93.5322,0190,0.96,6.83,6.8971,8.0009
1993-01-19 05:00:00 UTC,2449006.708333,27.8153,-93.5322,0190,0.65,7.17,7.1994,5.1800
1993-01-19 05:30:00 UTC,2449006.729167,27.8153,-93.5322,0190,1.13,7.72,7.8023,8.3274
1993-01-19 06:00:00 UTC,2449006.750000,27.8153,-93.5322,0190,1.26,7.39,7.4966,9.6759
1993-01-19 06:30:00 UTC,2449006.770833,27.8153,-93.5322,0190,1.59,7.33,7.5005,12.2388
1993-01-19 07:00:00 UTC,2449006.791667,27.8153,-93.5322,0190,1.62,6.71,6.9028,13.5732
1993-01-19 07:30:00 UTC,2449006.812500,27.8153,-93.5322,0190,2.29,5.87,6.3009,21.3117
1993-01-19 08:00:00 UTC,2449006.833333,27.8153,-93.5322,0190,2.06,4.45,4.9037,24.8404
1993-01-19 08:30:00 UTC,2449006.854167,27.8153,-93.5322,0190,0.97,1.75,2.0008,28.9990
1993-01-19 09:00:00 UTC,2449006.875000,27.8153,-93.5322,0190,0.65,0.89,1.1021,36.1420
1993-01-19 09:30:00 UTC,2449006.895833,27.8153,-93.5322,0190,2.27,0.37,2.3000,80.7424
1993-01-19 10:00:00 UTC,2449006.916667,27.8153,-93.5322,0190,3.53,-2.94,4.5940,129.7896
1993-01-19 10:30:00 UTC,2449006.937500,27.8153,-93.5322,0190,2.24,-5.02,5.4971,155.9528
1993-01-19 11:00:00 UTC,2449006.958333,27.8153,-93.5322,0190,0.24,-6.00,6.0048,177.7094
1993-01-19 11:30:00 UTC,2449006.979167,27.8153,-93.5322,0190,-0.46,-6.58,6.5961,183.9990
1993-01-19 12:00:00 UTC,2449007.000000,27.8153,-93.5322,0190,-0.56,-5.97,5.9962,185.3588
1993-01-19 12:30:00 UTC,2449007.020833,27.8153,-93.5322,0190,-0.71,-5.66,5.7044,187.1499
1993-01-19 13:00:00 UTC,2449007.041667,27.8153,-93.5322,0190,-2.66,-4.81,5.4965,208.9432
1993-01-19 13:30:00 UTC,2449007.062500,27.8153,-93.5322,0190,-4.18,-2.55,4.8964,238.6148
1993-01-19 14:00:00 UTC,2449007.083333,27.8153,-93.5322,0190,-4.30,-0.15,4.3026,268.0021
1993-01-19 14:30:00 UTC,2449007.104167,27.8153,-93.5322,0190,-3.17,1.22,3.3967,291.0496
1993-01-19 15:00:00 UTC,2449007.125000,27.8153,-93.5322,0190,-1.68,1.08,1.9972,302.7352
1993-01-19 15:30:00 UTC,2449007.145833,27.8153,-93.5322,0190,-1.28,2.82,3.0969,335.5867
1993-01-19 16:00:00 UTC,2449007.166667,27.8153,-93.5322,0190,-0.92,4.51,4.6029,348.4704
1993-01-19 16:30:00 UTC,2449007.187500,27.8153,-93.5322,0190,-0.22,5.70,5.7042,357.7897
1993-01-19 17:00:00 UTC,2449007.208333,27.8153,-93.5322,0190,0.36,6.59,6.5998,3.1269
1993-01-19 17:30:00 UTC,2449007.229167,27.8153,-93.5322,0190,0.91,5.93,5.9994,8.7244
1993-01-19 18:00:00 UTC,2449007.250000,27.8153,-93.5322,0190,1.48,5.81,5.9955,14.2912
1993-01-19 18:30:00 UTC,2449007.270833,27.8153,-93.5322,0190,2.28,5.55,6.0001,22.3334
1993-01-19 19:00:00 UTC,2449007.291667,27.8153,-93.5322,0190,2.94,6.57,7.1978,24.1080
1993-01-19 19:30:00 UTC,2449007.312500,27.8153,-93.5322,0190,3.31,6.73,7.4999,26.1892
1993-01-19 20:00:00 UTC,2449007.333333,27.8153,-93.5322,0190,3.41,4.94,6.0026,34.6167
1993-01-19 20:30:00 UTC,2449007.354167,27.8153,-93.5322,0190,3.25,5.04,5.9970,32.8156
1993-01-19 21:00:00 UTC,2449007.375000,27.8153,-93.5322,0190,3.64,4.77,6.0002,37.3474
1993-01-19 21:30:00 UTC,2449007.395833,27.8153,-93.5322,0190,3.70,3.65,5.1974,45.3898
1993-01-19 22:00:00 UTC,2449007.416667,27.8153,-93.5322,0190,4.38,1.39,4.5953,72.3931
1993-01-19 22:30:00 UTC,2449007.437500,27.8153,-93.5322,0190,4.25,0.64,4.2979,81.4363
1993-01-19 23:00:00 UTC,2449007.458333,27.8153,-93.5322,0190,4.84,0.76,4.8993,81.0760
1993-01-19 23:30:00 UTC,2449007.479167,27.8153,-93.5322,0190,3.16,2.46,4.0046,52.0999
1993-01-20 00:00:00 UTC,2449007.500000,27.8153,-93.5322,0190,3.26,4.05,5.1990,38.8319
1993-01-20 00:30:00 UTC,2449007.520833,27.8153,-93.5322,0190,2.94,5.23,5.9997,29.3421
1993-01-20 01:00:00 UTC,2449007.541667,27.8153,-93.5322,0190,1.68,3.63,3.9999,24.8352
1993-01-20 01:30:00 UTC,2449007.562500,27.8153,-93.5322,0190,0.40,2.77,2.7987,8.2170
1993-01-20 02:00:00 UTC,2449007.583333,27.8153,-93.5322,0190,0.49,2.76,2.8032,10.0672
1993-01-20 02:30:00 UTC,2449007.604167,27.8153,-93.5322,0190,0.77,2.69,2.7980,15.9735
1993-01-20 03:00:00 UTC,2449007.625000,27.8153,-93.5322,0190,0.76,3.62,3.6989,11.8567
1993-01-20 03:30:00 UTC,2449007.645833,27.8153,-93.5322,0190,0.87,3.60,3.7036,13.5860
1993-01-20 04:00:00 UTC,2449007.666667,27.8153,-93.5322,0190,1.45,3.41,3.7055,23.0362
1993-01-20 04:30:00 UTC,2449007.687500,27.8153,-93.5322,0190,1.28,2.82,3.0969,24.4133
1993-01-20 05:00:00 UTC,2449007.708333,27.8153,-93.5322,0190,1.10,1.30,1.7029,40.2364
1993-01-20 05:30:00 UTC,2449007.729167,27.8153,-93.5322,0190,2.83,1.26,3.0978,65.9999
1993-01-20 06:00:00 UTC,2449007.750000,27.8153,-93.5322,0190,1.81,0.85,1.9996,64.8446
1993-01-20 06:30:00 UTC,2449007.770833,27.8153,-93.5322,0190,1.08,0.21,1.1002,78.9965
1993-01-20 07:00:00 UTC,2449007.791667,27.8153,-93.5322,0190,0.03,2.00,2.0002,0.8594
1993-01-20 07:30:00 UTC,2449007.812500,27.8153,-93.5322,0190,-1.76,-0.96,2.0048,241.3896
1993-01-20 08:00:00 UTC,2449007.833333,27.8153,-93.5322,0190,-2.44,-1.91,3.0987,231.9466
1993-01-20 08:30:00 UTC,2449007.854167,27.8153,-93.5322,0190,-1.63,-1.15,1.9948,234.7962
1993-01-20 09:00:00 UTC,2449007.875000,27.8153,-93.5322,0190,-0.97,-0.53,1.1054,241.3482
1993-01-20 09:30:00 UTC,2449007.895833,27.8153,-93.5322,0190,-0.94,-0.57,1.0993,238.7681
1993-01-20 10:00:00 UTC,2449007.916667,27.8153,-93.5322,0190,-0.88,-1.09,1.4009,218.9153
1993-01-20 10:30:00 UTC,2449007.937500,27.8153,-93.5322,0190,-0.93,-3.89,3.9996,193.4456
1993-01-20 11:00:00 UTC,2449007.958333,27.8153,-93.5322,0190,0.30,-4.59,4.5998,176.2605
1993-01-20 11:30:00 UTC,2449007.979167,27.8153,-93.5322,0190,-0.05,-6.00,6.0002,180.4775
1993-01-20 12:00:00 UTC,2449008.000000,27.8153,-93.5322,0190,-2.11,-6.89,7.2058,197.0267
1993-01-20 12:30:00 UTC,2449008.020833,27.8153,-93.5322,0190,-2.23,-7.47,7.7958,196.6218
1993-01-20 13:00:00 UTC,2449008.041667,27.8153,-93.5322,0190,-2.63,-8.82,9.2038,196.6039
1993-01-20 13:30:00 UTC,2449008.062500,27.8153,-93.5322,0190,-3.06,-8.36,8.9024,200.1041
1993-01-20 14:00:00 UTC,2449008.083333,27.8153,-93.5322,0190,-4.53,-6.35,7.8002,215.5035
1993-01-20 14:30:00 UTC,2449008.104167,27.8153,-93.5322,0190,-4.26,-4.22,5.9963,225.2703
1993-01-20 15:00:00 UTC,2449008.125000,27.8153,-93.5322,0190,-3.95,-2.90,4.9003,233.7147
1993-01-20 15:30:00 UTC,2449008.145833,27.8153,-93.5322,0190,-2.14,-0.83,2.2953,248.8012
1993-01-20 16:00:00 UTC,2449008.166667,27.8153,-93.5322,0190,-2.71,0.70,2.7989,284.4831
1993-01-20 16:30:00 UTC,2449008.187500,27.8153,-93.5322,0190,-2.92,1.05,3.1030,289.7780
1993-01-20 17:00:00 UTC,2449008.208333,27.8153,-93.5322,0190,-1.21,4.44,4.6019,344.7558
1993-01-20 17:30:00 UTC,2449008.229167,27.8153,-93.5322,0190,-0.64,4.56,4.6047,352.0107
1993-01-20 18:00:00 UTC,2449008.250000,27.8153,-93.5322,0190,-0.24,5.49,5.4952,357.4969
1993-01-20 18:30:00 UTC,2449008.270833,27.8153,-93.5322,0190,0.03,6.00,6.0001,0.2865
1993-01-20 19:00:00 UTC,2449008.291667,27.8153,-93.5322,0190,0.91,5.12,5.2002,10.0782
1993-01-20 19:30:00 UTC,2449008.312500,27.8153,-93.5322,0190,1.41,5.83,5.9981,13.5960
1993-01-20 20:00:00 UTC,2449008.333333,27.8153,-93.5322,0190,2.93,6.90,7.4963,23.0079
1993-01-20 20:30:00 UTC,2449008.354167,27.8153,-93.5322,0190,4.04,3.74,5.5054,47.2083
1993-01-20 21:00:00 UTC,2449008.375000,27.8153,-93.5322,0190,4.25,0.64,4.2979,81.4363
1993-01-20 21:30:00 UTC,2449008.395833,27.8153,-93.5322,0190,4.67,-2.29,5.2013,116.1217
1993-01-20 22:00:00 UTC,2449008.416667,27.8153,-93.5322,0190,3.27,-5.38,6.2958,148.7085
1993-01-20 22:30:00 UTC,2449008.437500,27.8153,-93.5322,0190,2.06,-5.31,5.6956,158.7964
1993-01-20 23:00:00 UTC,2449008.458333,27.8153,-93.5322,0190,1.54,-5.28,5.5000,163.7398
1993-01-20 23:30:00 UTC,2449008.479167,27.8153,-93.5322,0190,-0.30,-4.29,4.3005,184.0002
1993-01-21 00:00:00 UTC,2449008.500000,27.8153,-93.5322,0190,-0.72,-4.24,4.3007,189.6376
1993-01-21 00:30:00 UTC,2449008.520833,27.8153,-93.5322,0190,-0.08,-4.90,4.9007,180.9354
1993-01-21 01:00:00 UTC,2449008.541667,27.8153,-93.5322,0190,-0.57,-3.35,3.3981,189.6564
1993-01-21 01:30:00 UTC,2449008.562500,27.8153,-93.5322,0190,-1.47,-3.72,3.9999,201.5620
1993-01-21 02:00:00 UTC,2449008.583333,27.8153,-93.5322,0190,-2.23,-3.32,3.9994,213.8887
1993-01-21 02:30:00 UTC,2449008.604167,27.8153,-93.5322,0190,-2.06,-2.70,3.3961,217.3423
1993-01-21 03:00:00 UTC,2449008.625000,27.8153,-93.5322,0190,-1.40,-1.43,2.0012,224.3927
1993-01-21 03:30:00 UTC,2449008.645833,27.8153,-93.5322,0190,-1.61,-1.65,2.3053,224.2970
1993-01-21 04:00:00 UTC,2449008.666667,27.8153,-93.5322,0190,-1.25,-1.16,1.7053,227.1387
1993-01-21 04:30:00 UTC,2449008.687500,27.8153,-93.5322,0190,-1.31,-1.09,1.7042,230.2375
1993-01-21 05:00:00 UTC,2449008.708333,27.8153,-93.5322,0190,-0.89,-0.65,1.1021,233.8580
1993-01-21 05:30:00 UTC,2449008.729167,27.8153,-93.5322,0190,-1.60,0.58,1.7019,289.9256
1993-01-21 06:00:00 UTC,2449008.750000,27.8153,-93.5322,0190,-1.57,2.67,3.0974,329.5438
1993-01-21 06:30:00 UTC,2449008.770833,27.8153,-93.5322,0190,-1.13,3.52,3.6969,342.2022
1993-01-21 07:00:00 UTC,2449008.791667,27.8153,-93.5322,0190,-0.15,2.60,2.6043,356.6981
1993-01-21 07:30:00 UTC,2449008.812500,27.8153,-93.5322,0190,0.00,1.40,1.4000,0.0000
1993-01-21 08:00:00 UTC,2449008.833333,27.8153,-93.5322,0190,0.47,1.63,1.6964,16.0846
1993-01-21 08:30:00 UTC,2449008.854167,27.8153,-93.5322,0190,0.49,0.99,1.1046,26.3331
1993-01-21 09:00:00 UTC,2449008.875000,27.8153,-93.5322,0190,0.57,0.94,1.0993,31.2319
1993-01-21 09:30:00 UTC,2449008.895833,27.8153,-93.5322,0190,0.61,0.91,1.0955,33.8351
1993-01-21 10:00:00 UTC,2449008.916667,27.8153,-93.5322,0190,1.77,-0.94,2.0041,117.9716
1993-01-21 10:30:00 UTC,2449008.937500,27.8153,-93.5322,0190,2.66,-1.60,3.1041,121.0271
1993-01-21 11:00:00 UTC,2449008.958333,27.8153,-93.5322,0190,1.71,-2.22,2.8022,142.3940
1993-01-21 11:30:00 UTC,2449008.979167,27.8153,-93.5322,0190,0.95,-2.63,2.7963,160.1394
1993-01-21 12:00:00 UTC,2449009.000000,27.8153,-93.5322,0190,0.26,-3.39,3.4000,175.6142
1993-01-21 12:30:00 UTC,2449009.020833,27.8153,-93.5322,0190,-0.30,-3.69,3.7022,184.6480
1993-01-21 13:00:00 UTC,2449009.041667,27.8153,-93.5322,0190,-0.43,-4.28,4.3015,185.7371
1993-01-21 13:30:00 UTC,2449009.062500,27.8153,-93.5322,0190,-0.57,-3.96,4.0008,188.1909
1993-01-21 14:00:00 UTC,2449009.083333,27.8153,-93.5322,0190,-1.03,-5.10,5.2030,191.4179
1993-01-21 14:30:00 UTC,2449009.104167,27.8153,-93.5322,0190,-0.28,-3.99,3.9998,184.0142
1993-01-21 15:00:00 UTC,2449009.125000,27.8153,-93.5322,0190,-0.24,-3.39,3.3985,184.0496
1993-01-21 15:30:00 UTC,2449009.145833,27.8153,-93.5322,0190,-0.63,-4.56,4.6033,187.8661
1993-01-21 16:00:00 UTC,2449009.166667,27.8153,-93.5322,0190,-0.47,-1.94,1.9961,193.6186